Showing default

IRIDIUM 135, 43070

Orbit data source: Space-Track

IRIDIUM 135, 43070 is a payload satellite owned by Iridium (US) in LEO that was launched on Sat, 23 Dec 2017 UTC via an FALCON 9 launch vehicle from the Air Force Western Test Range (AFWTR). Payload-class satellites include a variety of spacecraft equipped with specific instruments for various scientific and technological missions. These include communications satellites like Starlink; space stations such as the ISS; scientific satellites like the Hubble; Earth observation satellites from companies like Planet Labs, Umbra, and HawkEye 360; GPS; miniature CubeSats for education and research; and military/defense satellites.

Loading next visibility...
Identifier
43070, 2017-083A
Orbit
LEO
Last TLE update
19 hours ago
Origin
Manufacturer
OATK SSG Gilbert
Mission
Operational Commercial Communications
Bus & Motor
ELITEBUS, Unknown motor
Mass
860 kg wet, 700 kg dry
Launch date (UTC)
2017-12-23 (7 years ago)
Launch vehicle
FALCON 9
Launch site
Air Force Western Test Range (AFWTR)
Object type
Payload
Rocket body
Debris
Shape & HBR
Trap Box + 2 Pan, 9.4 m
Radar Cross Section
14.423 m², Large (>1 m²)

Expand to show TLE details & history

TLE from 19 hours ago
0 IRIDIUM 135
1 43070U 17083A   25128.49415636  .00000271  00000-0  89639-4 0  9998
2 43070  86.3944 131.2122 0002518  87.0586 273.0898 14.34217508386146
Epoch: 2025-05-08T11:51Z
Definitive object data (Epoch: 2025-05-08T11:51:35.109Z)
Latitude
-0.00002°
Longitude
86.75206°
Altitude
780.622 km
Speed
7.464 km/s
True Right ascension
08h 44m 50s
True Declination
0° 00' 00"
Sunlit
Object was in daylight at TLE epoch
Visualization TLE readout
Latitude
65.95759°
Longitude
94.50231°
Altitude
787.437 km
Speed
7.467 km/s
Apparent Right ascension
04h 55m 17s
Apparent Declination
24° 37' 13"
Sunlit
Object is in daylight
Visualization observer readout
Local Sidereal Time
14:43:59
Azimuth
328.676° NNW
Elevation
-18.579°
Doppler factor
1
Orbital elements
Apogee altitude
776.434 km
Perigee altitude
772.831 km
Semi-major axis
7,152.769 km
Eccentricity
0.0002518
Inclination
86.3944°
RAAN
131.2122°
Arg. of periapsis
87.0586°
True anomaly
273.06099°
Mean anomaly
273.0898°
Eccentric anomaly
273.07539°
Mean motion
3.58783 °/min
BSTAR
0.000089639
Orbital period
100.34 mins
Loading maneuver chart data...
Loading SW <> Apogee altitude chart data...
Loading historical data...
Loading historical data...
Loading historical data...
Loading historical data...
Loading historical data...
Loading historical data...
Loading historical data...

IRIDIUM 135 Visibility forecast

Observer location: undefined°, undefined°

Span
Click to sort rows by Start time (UTC) header in descending order
Start Az.
Max El. time (UTC)
Max El. Az.
Max El.
End time (UTC)
End Az.
9 mins2025-05-09 11:52:08.060Z7.922° NNE2025-05-09 11:57:08.060Z87.93° E38.411°2025-05-09 12:01:08.060Z157.728° S
5 mins2025-05-09 13:35:08.060Z308.758° NW2025-05-09 13:37:08.060Z282.818° WNW16.122°2025-05-09 13:40:08.060Z245.411° WSW
9 mins2025-05-10 00:49:08.060Z190.889° SSW2025-05-10 00:53:08.060Z286.132° WNW43.486°2025-05-10 00:58:08.060Z358.182° N
|